This is the latest recevied weather packets stored in our database for station/object IZ5RIE-13. If no packets are shown the sender has not sent any weather packets the latest 10 day(s).
| Time | Temp. | Humidity | Pressure | Rain* | Wind** | Luminosity | Snow |
|---|---|---|---|---|---|---|---|
| 1788672978 | 23.89° C | 100% | 1020.9 hPa | - | - | - | - |
| 1788672077 | 23.33° C | 100% | 1020.7 hPa | - | - | - | - |
| 1788672048 | 23.33° C | 100% | 1020.8 hPa | - | - | - | - |
| 1788672016 | 23.33° C | 100% | 1020.8 hPa | - | - | - | - |
| 1788671985 | 23.33° C | 100% | 1020.8 hPa | - | - | - | - |
| 1788671956 | 23.33° C | 100% | 1020.8 hPa | - | - | - | - |
| 1788671929 | 23.33° C | 100% | 1020.9 hPa | - | - | - | - |
| 1788671896 | 23.33° C | 100% | 1020.8 hPa | - | - | - | - |
| 1788671861 | 23.33° C | 100% | 1020.7 hPa | - | - | - | - |
| 1788671173 | 23.33° C | 100% | 1020.6 hPa | - | - | - | - |
| 1788670273 | 23.33° C | 100% | 1020.6 hPa | - | - | - | - |
| 1788669373 | 22.78° C | 100% | 1020.3 hPa | - | - | - | - |
| 1788668473 | 23.33° C | 100% | 1020.3 hPa | - | - | - | - |
| 1788667573 | 23.33° C | 100% | 1020.2 hPa | - | - | - | - |
| 1788666673 | 23.33° C | 100% | 1020.1 hPa | - | - | - | - |
| 1788665772 | 23.33° C | 100% | 1020.2 hPa | - | - | - | - |
| 1788664872 | 23.89° C | 100% | 1020.2 hPa | - | - | - | - |
| 1788663971 | 23.89° C | 100% | 1020.2 hPa | - | - | - | - |
| 1788663071 | 23.89° C | 100% | 1020.2 hPa | - | - | - | - |
| 1788662171 | 23.89° C | 100% | 1020.2 hPa | - | - | - | - |
| 1788661271 | 23.89° C | 100% | 1020.3 hPa | - | - | - | - |
| 1788660370 | 23.89° C | 100% | 1020.4 hPa | - | - | - | - |
| 1788659476 | 24.44° C | 100% | 1020.4 hPa | - | - | - | - |
| 1788658592 | 24.44° C | 100% | 1020.4 hPa | - | - | - | - |
| 1788657676 | 24.44° C | 100% | 1020.6 hPa | - | - | - | - |
* Rain since midnight (hover to see other rain measurements)
** Current wind speed in m/s (hover to see current wind gust speed)